Вернуться в каталог

STARLINK-4771

АктивенСвязьVLEO
NORAD 53833·PAYLOAD·🇺🇸 United States

Запущен Sep 19, 2022 с Cape Canaveral Space Force Station

Loading…

Ближайшие Пролёты (ближайшие 24 часа)

TLE

СвежийSource: CelesTrak SupGP

Эпоха: Sep 15, 2026, 02:58 UTC

1 53833C 22114R   26258.12409722  .00030812  00000+0  19330-2 0  2581
2 53833  53.1589 172.9621 0001672  86.1134 189.1264 15.08805485    18

Отслеживайте STARLINK-4771 в реальном времени с AllMySat

Download on the App Store